Погода в Санклиме

Индия     15°31′44″N   74°08′07″E
темп.,
°C
ветер,
м/с
пор.,
м/с
влажн.,
%
обл.,
%
осадки,
мм/ч
давл.,
гПа
погр.,
м
12 мая, ср
ср1223:30+24ююв1288100 0.3 101058
02:30+24с0190100 0.0 100820
05:30+23в0092100 0.0 100811
08:30+27з1269100 0.0 1009611
11:30+34з2141100 0.0 10081401
14:30+35зюз3341100 0.0 10042204
17:30+29з357051 1.2 1004939
20:30+25з248644 0.4 1007267
13 мая, чт
чт1323:30+24з129099 0.4 1007123
02:30+25зюз1289100 0.1 1006159
05:30+24з1193100 0.2 100639
08:30+27зсз127598 0.0 1008658
11:30+33з2246100 0.0 10061402
14:30+35зюз3342100 0.1 10032101
17:30+30зсз346299 1.0 1003965
20:30+25зюз2387100 1.9 1005164
14 мая, пт
пт1423:30+25ю1189100 2.2 1005100
02:30+24юв119298 0.1 100331
05:30+23ю119398 0.9 100441
08:30+28зсз1172100 0.3 1005415
11:30+33ююз245195 0.9 10041362
14:30+34юз1445100 0.0 10001460
17:30+29зсз2466100 0.4 1000305
20:30+25св1183100 0.0 100256
15 мая, сб
сб1523:30+26вюв1177100 0.0 100224
02:30+26ссв2373100 0.0 99858
05:30+26всв3765100 0.0 1000293
08:30+28в41060100 0.1 10001077
11:30+28в41261100 0.2 10011313
14:30+26в71772100 0.4 9971380
17:30+25в71775100 1.3 9971192
20:30+25в71675100 0.6 9981184
16 мая, вс
вс1623:30+24в81985100 2.8 9971252
02:30+24в132581100 2.8 9911583
05:30+23вюв82092100 21.6 9931511
08:30+23ююв51697100 31.9 9961516
11:30+23ю51597100 50.0 9991360
14:30+23юз51297100 23.8 9981108
17:30+23ююз51298100 28.2 1000986
20:30+23ююз41195100 5.1 1003853